Regional Weather Roundup
Issued by NWS

Home | Current Version | Previous Version | Graphics & Text | Print | Product List | Glossary On
Versions: 1 2 3 4 5 6 7 8 9 10 11 12 13 14 15 16 17 18 19 20 21 22 23 24 25 26 27 28 29 30 31 32 33 34 35 36 37 38 39 40 41 42 43 44 45 46 47 48 49 50
501
ASUS43 KFSD 240410
RWRSD

WEATHER ROUNDUP FOR SOUTH DAKOTA
NATIONAL WEATHER SERVICE SIOUX FALLS SD
1000 PM CST THU FEB 23 2017

NOTE: "FAIR" INDICATES FEW OR NO CLOUDS BELOW 12,000 FEET WITH NO
SIGNIFICANT WEATHER AND/OR OBSTRUCTIONS TO VISIBILITY.


SDZ001>005-009-010-012>017-240500-
NORTHWEST AND NORTH CENTRAL SOUTH DAKOTA

CITY           SKY/WX    TMP DP  RH WIND       PRES   REMARKS
BUFFALO          N/A     26  24  92 NE14      29.96  WCI  14
FAITH            N/A     27  24  89 NE13      30.01  WCI  16
MOBRIDGE       CLOUDY    29  20  69 MISG      30.02
$$

SDZ012>016-024>037-041>051-057-063-072>074-240500-
SOUTHWEST AND SOUTH CENTRAL SOUTH DAKOTA

CITY           SKY/WX    TMP DP  RH WIND       PRES   REMARKS
RAPID CTY ARPT FLURRIES  26  21  81 NE12      29.98  WCI  16
PIERRE         CLOUDY    29  21  72 NE15G22   29.99  WCI  18
CUSTER         LGT SNOW  18  13  80 NE12      29.84  WCI   5
ELLSWORTH AFB  CLOUDY    27  25  93 NE12      29.98  WCI  16
PHILIP         CLOUDY    28  21  75 NE13      30.00  WCI  17
PINE RIDGE     LGT SNOW  24  22  91 NE9       29.93  FOG     WCI  14
SPEARFISH      LGT SNOW  23  23 100 E12G18    29.97R WCI  12
WINNER         LGT SNOW  26  24  92 N18       29.93R VSB 1   WCI  13
$$

SDZ004>011-016>023-039-040-240500-
NORTHEAST SOUTH DAKOTA

CITY           SKY/WX    TMP DP  RH WIND       PRES   REMARKS
ABERDEEN       CLOUDY    24  17  74 NE21G30   30.04  WCI   9
WATERTOWN      CLOUDY    23  18  81 NE22G32   29.93R WCI   8
BROOKINGS      CLOUDY    26  22  84 N25G32    29.86  WCI  11
SISSETON         N/A     24  19  81 N17G26    30.03  WCI  11
$$

SDZ017-020-022-023-036>040-048>070-240500-
SOUTHEAST SOUTH DAKOTA

CITY           SKY/WX    TMP DP  RH WIND       PRES   REMARKS
SIOUX FALLS    SNOW      28  27  96 NE22G31   29.82  VSB 1/2 WCI  14
HURON          CLOUDY    27  22  81 N17       29.96  WCI  14
CHAMBERLAIN    CLOUDY    29  24  82 N17       29.95S WCI  17
MITCHELL       LGT SNOW  28  25  88 N20       29.91F FOG     WCI  15
YANKTON        CLOUDY    28  25  86 N16       29.82R WCI  17
$$

ABBREVIATIONS USED IN REMARKS
   TC - TEMPERATURE IN CELSIUS
  WCI - WIND CHILL INDEX
   HX - HEAT INDEX
  VSB - VISIBILITY





USA.gov is the U.S. government's official web portal to all federal, state and local government web resources and services.